Regional Weather Roundup
Issued by NWS

Home | Current Version | Previous Version | Text Only | Print | Product List | Glossary Off
Versions: 1 2 3 4 5 6 7 8 9 10 11 12 13 14 15 16 17 18 19 20 21 22 23 24 25 26 27 28 29 30 31 32 33 34 35 36 37 38 39 40 41 42 43 44 45 46 47 48 49 50

000
ASUS43 KMKX 180511
RWRWI

WISCONSIN REGIONAL WEATHER ROUNDUP
NATIONAL WEATHER SERVICE MILWAUKEE/SULLIVAN WI
1200 AM CDT SAT APR 18 2015

NOTE: "FAIR" INDICATES FEW OR NO CLOUDS BELOW 12,000 FEET WITH NO
SIGNIFICANT WEATHER AND/OR OBSTRUCTIONS TO VISIBILITY.

WIZ001-002-006>008-014>016-023>028-180600-
NORTHWEST WISCONSIN

CITY           SKY/WX    TMP DP  RH WIND       PRES   REMARKS
SUPERIOR ARPT  CLEAR     56  30  36 NE6       30.06R
ASHLAND        CLEAR     49  26  41 N9        30.06R
HAYWARD        PTCLDY    43  32  65 CALM      30.04R
SIREN          CLEAR     43  33  66 CALM      30.04R
CUMBERLAND     CLEAR     45  30  57 CALM      30.03S
RICE LAKE      CLEAR     44  35  69 CALM      30.04F
CHETEK         CLEAR     44  38  78 CALM      30.03F
LADYSMITH      CLEAR     50  33  51 N3        30.04S
EAU CLAIRE     CLEAR     50  33  52 E3        30.02S
MENOMONIE      CLEAR     51  40  65 CALM      30.03S
NEW RICHMOND   CLEAR     46  37  71 CALM      30.04S
OSCEOLA        CLEAR     46  36  68 CALM      30.06S
$$

WIZ003>005-009-010-017-018-180600-
NORTH CENTRAL WISCONSIN

CITY           SKY/WX    TMP DP  RH WIND       PRES   REMARKS
MANITOWISH WTR PTCLDY    39  37  95 CALM      30.03R
ARBOR VITAE    PTCLDY    43  32  63 CALM      30.03S
WOODRUFF       PTCLDY    43  32  63 CALM      30.03S
RHINELANDER    PTCLDY    54  27  35 NW5       30.03R
EAGLE RIVER    FAIR      40  32  73 CALM      30.02R
LAND O LAKES   CLEAR     36  34  93 CALM      30.03R
PHILLIPS       CLEAR     52  27  38 CALM      30.03R
TOMAHAWK       PTCLDY    44  32  63 CALM      30.03S
MEDFORD        CLEAR     53  31  43 NW5       30.02F
MERRILL        CLEAR     53  35  50 NW5       30.02S
$$

WIZ029-030-035-036-043>047-180600-
CENTRAL WISCONSIN

CITY           SKY/WX    TMP DP  RH WIND       PRES   REMARKS
WAUSAU         CLEAR     57  41  55 NW6       30.00R
MOSINEE        CLEAR     54  36  50 NW5       30.03R
MARSHFIELD     PTCLDY    54  39  57 N8        30.02S
STEVENS POINT  CLEAR     47  40  77 CALM      30.01S
WAUPACA        CLEAR     53  43  71 CALM      30.00S
WAUTOMA        PTCLDY    49  43  80 CALM      30.01S
WISC RAPIDS    CLEAR     51  39  63 N3        30.02S
CAMP DOUGLAS   PTCLDY    50  50  99 W3        30.01R
$$

WIZ011>013-019>022-031-037>040-048>050-180600-
NORTHEAST WISCONSIN

CITY           SKY/WX    TMP DP  RH WIND       PRES   REMARKS
ANTIGO         CLEAR     54  37  53 NW6       30.02S
SHAWANO        CLEAR     55  43  65 CALM      29.99S
OCONTO         FAIR      47  41  82 N5        29.99R
STURGEON BAY   CLEAR     46  37  71 N10G20    30.01R
GREEN BAY      CLEAR     55  44  66 SW3       29.98S
MANITOWOC      CLEAR     44  42  93 CALM      29.99S
APPLETON       CLEAR     54  43  66 W6        30.00S
CLINTONVILLE   CLEAR     52  43  71 CALM      29.99S
OSHKOSH        PTCLDY    58  44  60 SW7       29.99S
$$

WIZ032>034-041-042-053>061-180600-
SOUTHWEST WISCONSIN

CITY           SKY/WX    TMP DP  RH WIND       PRES   REMARKS
LA CROSSE      PTCLDY    59  50  72 CALM      30.01S
SPARTA         PTCLDY    48  41  75 E3        30.03S
VIROQUA        PTCLDY    60  42  50 N3        30.03R
BOSCOBEL       CLEAR     52  45  77 CALM      30.01S
PRAIRIE DU CHI CLEAR     54  45  71 CALM      30.01S
PLATTEVILLE    CLEAR     63  45  52 CALM      30.02S
$$

WIZ056-057-062-063-064-067-068-180600-
SOUTH CENTRAL WISCONSIN

CITY           SKY/WX    TMP DP  RH WIND       PRES   REMARKS
REEDSBURG      PTCLDY    54  46  74 CALM      30.01R
BARABOO/DELLS  PTCLDY    55  42  62 CALM      30.00S
LONE ROCK      PTCLDY    51  44  77 CALM      30.01R
MINERAL POINT  CLEAR     63  43  48 CALM      30.02S
MADISON        PTCLDY    55  46  71 CALM      30.00S
MIDDLETON      PTCLDY    55  45  68 CALM      30.01S
WATERTOWN      MOCLDY    51  46  83 CALM      30.00S
MONROE         CLEAR     68  45  42 W7        30.01R
JANESVILLE     PTCLDY    55  45  67 CALM      30.00R
$$

WIZ051-052-058>065-066-070>072-180600-
SOUTHEAST WISCONSIN

CITY           SKY/WX    TMP DP  RH WIND       PRES   REMARKS
MILWAUKEE      PTCLDY    53  41  63 CALM      30.00F
WAUKESHA       MOCLDY    52  41  66 CALM      30.01S
MILWAUKEE/TIMM PTCLDY    50  37  62 CALM      30.00F
RACINE         PTCLDY    52  41  66 W3        30.01S
BURLINGTON     MOCLDY    49  44  85 SW3       30.00S
KENOSHA        PTCLDY    50  43  77 CALM      30.00S HAZE
FOND DU LAC    PTCLDY    56  43  61 SW3       30.00S
SHEBOYGAN      PTCLDY    48  40  73 CALM      29.99S
WEST BEND      PTCLDY    55  37  50 CALM      30.00S
JUNEAU         MOCLDY    54  43  66 CALM      30.01S
$$

LSZ147-162-180600-
LAKE SUPERIOR

STATION/POSITION TIME  TEMP    WIND        PRES    WAVE
                       AIR SEA DIR/SP/G            HT/PER
                 (UTC) (F)     (DEG/KT/KT) (MB)    (FT/S)
DEVILS ISLAND    0500   47      10/ 21/ 23 1019.3R
PORT WING        0440   49      30/ 10/ 13 1017.9R
SAXON HARBOR     0420   53     290/  6/ 11 1016.6R
$$

LMZ867-665-643>646-180600-
LAKE MICHIGAN

STATION/POSITION TIME  TEMP    WIND        PRES    WAVE
                       AIR SEA DIR/SP/G            HT/PER
                 (UTC) (F)     (DEG/KT/KT) (MB)    (FT/S)
CHAMBERS ISLAND  0400   40     340/ 10/ 17 1015.9R
NORTHPORT PIER   0400   42     310/  7/ 15 1015.9R
SISTER BAY       0432   45        CALM       N/A
KEWAUNEE LAKESHO 0412   48      CALM  /  1 1014.2F
SHEBOYGAN LAKESH 0500   55     240/  5/  7 1015.9F
PORT WASHINGTON  0400   48     240/  1/  3 1016.6S
MILWAUKEE LAKESH 0400   42      40/  4/  6   N/A
KENOSHA   LAKESH 0500   52     210/  6/  7 1015.6F
$$

TC  - TEMPERATURE IN CELSIUS
VSB - VISIBILITY IN STATUTE MILES
WCI - WIND CHILL INDEX
HX  - HEAT INDEX



USA.gov is the U.S. government's official web portal to all federal, state and local government web resources and services.